Location: Prairie View Elementary School
(39.8322°N, 99.5698°W)
Time: 08:30:15
(UTC+00:00)

GEOS 3 Rocket - Pass Details

Date: 08 December 2019
Orbit: 783 x 836 km, 115.0° (Epoch: 17 January)

Event Time Altitude Azimuth Distance (km) Brightness Sun altitude
Rises 11:13:41 0° 135° (SE) 3,259 7.5 -28.6°
Reaches altitude 10° 11:15:57 10° 132° (SE) 2,336 6.7 -28.2°
Maximum altitude 11:20:57 66° 52° (NE) 863 3.8 -27.2°
Enters shadow 11:21:43 57° 7° (N) 926 3.8 -27.1°
